[Iaude] MPEC V129: 2023 VU3 [a=2.89,e=0.63,i=5.5,H=20.9]
    mpec at marsden.cfa.harvard.edu 
    mpec at marsden.cfa.harvard.edu
       
    Thu Nov  9 08:38:15 EST 2023
    
    
  
M.P.E.C. 2023-V129                             Issued 2023 November 9, 13:36 UT
     The Minor Planet Electronic Circulars contain information on unusual
         minor planets, routine data on comets and natural satellites,
         and occasional editorial announcements.  They are published
    on behalf of Division F of the International Astronomical Union by the
          Minor Planet Center, Smithsonian Astrophysical Observatory,
                          Cambridge, MA 02138, U.S.A.
			  
             Prepared using the Tamkin Foundation Computer Network
                              MPC at CFA.HARVARD.EDU
            URL https://www.minorplanetcenter.net/    ISSN 1523-6714
                                    2023 VU3                                    
Observations:
     K23V03U* C2023 11 05.27659023 27 30.478-04 18 08.42         21.90wXEV129F51
     K23V03U  C2023 11 05.29755423 27 29.325-04 18 03.55         21.84wXEV129F51
     K23V03U  C2023 11 05.30803223 27 28.746-04 18 01.06         21.83wXEV129F51
     K23V03U KC2023 11 06.10146023 26 50.896-04 14 50.50         21.75GVEV129I52
     K23V03U KC2023 11 06.10609323 26 50.629-04 14 49.45         21.88GVEV129I52
     K23V03U KC2023 11 06.11267723 26 50.276-04 14 47.26         21.87GVEV129I52
     K23V03U KC2023 11 06.11927623 26 49.952-04 14 45.56         21.91GVEV129I52
     K23V03U KC2023 11 08.08755323 25 23.833-04 05 43.44         21.93GVEV129V06
     K23V03U KC2023 11 08.09390823 25 23.531-04 05 41.75         22.07GVEV129V06
     K23V03U KC2023 11 08.10026123 25 23.246-04 05 39.44         21.29GVEV129V06
     K23V03U KC2023 11 08.10661523 25 22.980-04 05 37.61         21.53GVEV129V06
     K23V03U KC2023 11 09.13981423 24 42.635-04 00 16.70         21.91GVEV129V06
     K23V03U KC2023 11 09.14458123 24 42.437-04 00 15.26         22.26GVEV129V06
     K23V03U KC2023 11 09.14934723 24 42.228-04 00 13.93         22.09GVEV129V06
     K23V03U KC2023 11 09.15411223 24 42.016-04 00 12.31         22.49GVEV129V06
     K23V03U  C2023 11 09.22920823 24 38.865-03 59 48.05         21.6 GVEV129H01
     K23V03U  C2023 11 09.23347523 24 38.682-03 59 46.73         21.6 GVEV129H01
     K23V03U  C2023 11 09.24469223 24 38.225-03 59 43.17         21.6 GVEV129H01
     K23V03U  C2023 11 09.25036923 24 37.994-03 59 41.19         21.6 GVEV129H01
Observer details:
F51 Pan-STARRS 1, Haleakala.  Observers J. Bulger, T. Lowe, P. Minguez, A.
    Schultz, I. Smith.  Measurers K. Chambers, T. de Boer, J. Fairlamb, H.
    Gao, M. Huber, C.-C. Lin, E. Magnier, Y. Ramanjooloo, R. Wainscoat, R.
    Weryk.  1.8-m Ritchey-Chretien + CCD.
H01 Magdalena Ridge Observatory, Socorro.  Observers W. H. Ryan, E. V. Ryan.
    Measurer W. H. Ryan.  2.4-m f/8.9 Ritchey-Chretien + CCD.
I52 Steward Observatory, Mt. Lemmon Station.  Observer R. A. Kowalski.
    Measurers E. C. Beshore, D. Fay, J. B. Fazekas, D. C. Fuls, A. R. Gibbs,
    A. D. Grauer, H. Groeller, J. K. Hogan, R. A. Kowalski, S. M. Larson, G.
    J. Leonard, D. Rankin, R. L. Seaman, F. C. Shelly, K. W. Wierzchos.  1.0-m
    prime focus + CCD.
V06 Catalina Sky Survey-Kuiper.  Observer H. Groeller.  Measurers E. C.
    Beshore, D. Fay, J. B. Fazekas, D. C. Fuls, A. R. Gibbs, A. D. Grauer, H.
    Groeller, J. K. Hogan, R. A. Kowalski, S. M. Larson, G. J. Leonard, D.
    Rankin, R. L. Seaman, F. C. Shelly, K. W. Wierzchos.  1.55-m reflector +
    1K CCD.
Orbital elements:
2023 VU3                                                 Earth MOID = 0.1161 AU
Epoch 2023 Sept. 13.0 TT = JDT 2460200.5                Veres                   
M 333.31846              (2000.0)            P               Q                  
n   0.20087740     Peri.   69.81873     -0.10219872     -0.99385916             
a   2.8874557      Node    26.15767     +0.87298329     -0.11005004             
e   0.6336214      Incl.    5.52172     +0.47692305     -0.01153076             
P   4.91           H   20.94          G   0.15           U   9                  
Residuals in seconds of arc
231105 F51  0.1-  0.0     231108 V06  0.1-  0.1-    231109 V06  0.3-  0.1-
231105 F51  0.0   0.0     231108 V06  0.3-  0.2-    231109 H01  0.2+  0.1+
231105 F51  0.1-  0.0     231108 V06  0.2-  0.2+    231109 H01  0.1+  0.0
231106 I52  0.5+  0.2-    231108 V06  0.1+  0.1+    231109 H01  0.1+  0.1-
231106 I52  0.1+  0.3-    231109 V06  0.0   0.2+    231109 H01  0.1+  0.0
231106 I52  0.1-  0.2+    231109 V06  0.0   0.1+
231106 I52  0.2+  0.2+    231109 V06  0.1-  0.1-
Ephemeris:
2023 VU3                 a,e,i = 2.89, 0.63, 6                   q = 1.0579
Date    TT    R. A. (2000) Decl.     Delta      r    Elong.  Phase     V
2023 10 10    00 01 52.6 -04 04 59   0.6937  1.6730   162.3    10.5    21.9
...
2023 10 25    23 39 45.8 -04 38 46   0.6375  1.5496   142.5    23.0    22.0
...
2023 11 02    23 30 29.1 -04 28 48   0.6218  1.4849   132.5    29.5    22.1
...
2023 11 08    23 25 27.1 -04 06 01   0.6143  1.4373   125.5    34.2    22.1
2023 11 09    23 24 47.8 -04 00 54   0.6133  1.4294   124.3    34.9    22.1
2023 11 10    23 24 11.9 -03 55 23   0.6123  1.4216   123.2    35.6    22.1
...
2023 11 16    23 21 48.3 -03 14 06   0.6077  1.3755   116.9    39.9    22.1
...
2023 11 24    23 21 54.8 -01 57 10   0.6024  1.3163   109.4    45.1    22.2
...
2023 12 09    23 32 05.9 +01 33 08   0.5892  1.2152    97.9    53.4    22.2
M. P. C. Staff               (C) Copyright 2023 MPC           M.P.E.C. 2023-V129
    
    
More information about the Iaude
mailing list